• Join FlightAware (Why Join?)
  • Login
  • US Flag GB Flag 
05:56 EDT


 

Airport Tracker/Info


-or-


 

Live Flight TrackerFlight Track Log ✈ JBU1329 ✈ 21-May-2013 ✈ KBOS - KBWI

Flight Track Log - Related Links

Times and Time Zones

All times are in EDT time to prevent confusion due to time zone crossing. See the JBU1329 flight status page for this flight to view local times or setup timezone preferences in your user account.

Time Position Orientation Groundspeed Altitude Reporting Facility
EDT Latitude Longitude Course Direction KTS MPH feet Rate Location/Type
09:49 42.3667 -70.9833 262° West 138 159 700  Level KA90
09:50 42.3667 -70.9333 90° East 166 191 1,500 2,100 Climbing KA90
09:51 42.3833 -70.8500 75° East 239 275 4,000 2,220 Climbing KA90
09:52 42.3713 -70.7309 172° South  Level FlightAware Approximate
09:52 42.3819 -70.7761 91° East 284 327 5,400  Level Boston Center
09:53 42.2805 -70.7459 228° Southwest  Level FlightAware Approximate
09:53 42.3167 -70.7272 151° Southeast 303 349 8,400  Level Boston Center
09:54 42.2180 -70.8526 240° Southwest  Level FlightAware Approximate
09:54 42.2506 -70.7711 206° Southwest 286 329 11,400  Level Boston Center
09:55 42.1824 -70.9765 262° West  Level FlightAware Approximate
09:55 42.2039 -70.8567 234° Southwest 309 356 13,400  Level Boston Center
09:56 42.1908 -70.9744 262° West 317 365 15,300 2,100 Climbing Boston Center
09:57 42.1736 -71.1011 260° West 338 389 17,700 2,160 Climbing Boston Center
09:58 42.1586 -71.2358 262° West 351 404 19,700 1,920 Climbing Boston Center
09:59 42.1411 -71.3706 260° West 363 418 21,600 1,920 Climbing Boston Center
10:00 42.1214 -71.4997 258° West 384 442 23,600 1,860 Climbing Boston Center
10:01 42.0956 -71.6511 257° West 391 450 25,400 1,500 Climbing Boston Center
10:02 42.0733 -71.7997 259° West 396 456 26,700 1,260 Climbing Boston Center
10:03 42.0472 -71.9817 259° West 407 468 28,300 1,140 Climbing Boston Center
10:04 41.9956 -72.1272 245° Southwest 417 480 29,300 1,380 Climbing Boston Center
10:05 41.9314 -72.2642 238° Southwest 422 486 31,100 1,260 Climbing Boston Center
10:06 41.8647 -72.3928 235° Southwest 427 491 31,900 420 Climbing Boston Center
10:07 41.8003 -72.5264 237° Southwest 432 497 32,000  Climbing Boston Center
10:08 41.7353 -72.6600 237° Southwest 432 497 32,000  Level Boston Center
10:09 41.6725 -72.7931 238° Southwest 437 503 32,000  Level Boston Center
10:10 41.6075 -72.9258 237° Southwest 437 503 32,000  Level Boston Center
10:12 41.4828 -73.1778 237° Southwest 412 474 32,000  Level New York Center
10:13 41.4197 -73.3111 238° Southwest 412 474 32,000  Level New York Center
10:14 41.3522 -73.4411 235° Southwest 421 484 32,000  Level New York Center
10:15 41.2867 -73.5764 237° Southwest 433 498 32,000  Level New York Center
10:16 41.2128 -73.7031 232° Southwest 433 498 32,000  Level New York Center
10:17 41.1408 -73.8267 232° Southwest 438 504 32,000  Level New York Center
10:18 41.0647 -73.9497 231° Southwest 438 504 32,000  Level New York Center
10:19 40.9903 -74.0753 232° Southwest 438 504 32,000 -540 Level New York Center
10:20 40.9183 -74.1872 230° Southwest 443 510 31,000 -1,560 Descending New York Center
10:21 40.8419 -74.3122 231° Southwest 443 510 29,000 -1,500 Descending New York Center
10:22 40.7672 -74.4397 232° Southwest 443 510 28,000 -540 Descending New York Center
10:23 40.6925 -74.5617 231° Southwest 443 510 28,000  Level New York Center
10:24 40.6197 -74.6836 232° Southwest 437 503 28,000 -600 Level New York Center
10:25 40.5447 -74.8022 230° Southwest 432 497 26,900 -1,140 Descending New York Center
10:26 40.4678 -74.9231 230° Southwest 432 497 25,800 -1,140 Descending New York Center
10:27 40.3969 -75.0386 231° Southwest 432 497 24,700 -1,500 Descending New York Center
10:28 40.3261 -75.1514 231° Southwest 421 484 22,800 -2,160 Descending New York Center
10:29 40.2572 -75.2639 231° Southwest 415 478 20,600 -2,220 Descending New York Center
10:30 40.1803 -75.3650 225° Southwest 404 465 18,400 -1,320 Descending New York Center
10:31 40.0953 -75.4653 222° Southwest 389 448 18,000 -240 Descending New York Center
10:32 40.0250 -75.5500 223° Southwest 383 441 18,000  Level New York Center
10:33 39.9375 -75.6494 221° Southwest 383 441 18,000 -1,080 Level New York Center
10:34 39.8794 -75.7428 231° Southwest 373 429 15,900 -1,500 Descending New York Center
10:35 39.8181 -75.8656 237° Southwest 373 429 15,000 -480 Descending New York Center
10:36 39.7333 -76.0333 237° Southwest 330 380 14,700 -900 Descending Potomac TRACON
10:37 39.6833 -76.1167 232° Southwest 318 366 12,800 -1,320 Descending Potomac TRACON
10:38 39.6333 -76.2167 237° Southwest 299 344 12,100 -780 Descending Potomac TRACON
10:39 39.6000 -76.3000 243° Southwest 293 337 11,300 -1,260 Descending Potomac TRACON
10:40 39.5667 -76.4000 247° West 294 338 9,600 -1,860 Descending Potomac TRACON
10:41 39.5333 -76.5000 247° West 284 327 7,600 -1,980 Descending Potomac TRACON
10:42 39.5000 -76.6000 247° West 275 316 5,700 -1,260 Descending Potomac TRACON
10:43 39.4500 -76.6500 218° Southwest 261 300 5,100 -300 Descending Potomac TRACON
10:44 39.4167 -76.5833 123° Southeast 243 280 5,100  Level Potomac TRACON
10:45 39.4333 -76.5000 75° East 235 270 5,100  Level Potomac TRACON
10:46 39.4500 -76.4333 72° East 234 269 5,100 -60 Level Potomac TRACON
10:47 39.5000 -76.4167 14° North 231 266 5,000  Descending Potomac TRACON
10:48 39.5667 -76.4333 349° North 229 264 5,100  Climbing Potomac TRACON
10:49 39.5333 -76.4833 229° Southwest 240 276 5,100 -360 Level Potomac TRACON
10:50 39.4833 -76.4667 166° South 228 262 4,400 -540 Descending Potomac TRACON
10:51 39.4167 -76.4500 169° South 228 262 4,100 -180 Descending Potomac TRACON
10:52 39.3667 -76.4333 166° South 230 265 4,100  Level Potomac TRACON
10:53 39.3000 -76.4333 180° South 229 264 4,100  Level Potomac TRACON
10:54 39.2333 -76.4500 191° South 230 265 4,100  Level Potomac TRACON
10:55 39.1667 -76.4500 180° South 231 266 4,100 -540 Level Potomac TRACON
10:56 39.1167 -76.4833 207° Southwest 223 257 3,100 -960 Descending Potomac TRACON
10:57 39.0667 -76.5167 207° Southwest 203 234 2,200 -600 Descending Potomac TRACON
10:58 39.0667 -76.5667 270° West 182 209 2,000 -480 Descending Potomac TRACON
10:59 39.1167 -76.6167 322° Northwest 188 216 1,400 -720 Descending Potomac TRACON
11:00 39.1500 -76.6500 322° Northwest 140 161 600 -840 Descending Potomac TRACON